When you browse on this site, cookies collect data to enhance your experience and personalize the content and advertising you see.
Visit our Privacy Policy to learn more. By continuing to use the site, you agree to this use of cookies and data.
  • In United Kingdom
  • List of Countries
  • For 7 days
  • Water Temperature
  • Weather Map
  • Weather Widgets
  • user-avatar
    Login

    Hourly Weather Kerimäki

    Today, 25 January, Saturday

    Time Temperature Precipitation Wind Pressure Humidity
    00:00 -4°C° 0 mm 5 mps 735 mmHg 84%
    01:00 -4°C° 0 mm 5 mps 734 mmHg 83%
    02:00 -4°C° 0 mm 5 mps 734 mmHg 81%
    03:00 -4°C° 0 mm 5 mps 734 mmHg 83%
    04:00 -4°C° 0 mm 6 mps 733 mmHg 84%
    05:00 -4°C° 0 mm 6 mps 733 mmHg 86%
    06:00 -4°C° 0 mm 6 mps 733 mmHg 84%
    07:00 -5°C° 0 mm 6 mps 733 mmHg 81%
    08:00 -5°C° 0 mm 6 mps 734 mmHg 79%
    09:00 -5°C° 0 mm 6 mps 734 mmHg 80%
    10:00 -5°C° 0 mm 6 mps 735 mmHg 81%
    11:00 -5°C° 0 mm 6 mps 736 mmHg 82%
    12:00 -5°C° 0 mm 6 mps 736 mmHg 82%
    13:00 -5°C° 0 mm 6 mps 737 mmHg 81%
    14:00 -5°C° 0 mm 6 mps 738 mmHg 80%
    15:00 -5°C° 0 mm 6 mps 739 mmHg 80%
    16:00 -6°C° 0 mm 6 mps 740 mmHg 79%
    17:00 -6°C° 0 mm 5 mps 740 mmHg 79%
    18:00 -6°C° 0 mm 5 mps 741 mmHg 79%
    19:00 -6°C° 0 mm 5 mps 742 mmHg 80%
    20:00 -7°C° 0 mm 4 mps 742 mmHg 80%
    21:00 -7°C° 0 mm 4 mps 743 mmHg 82%
    22:00 -7°C° 0 mm 4 mps 744 mmHg 83%
    23:00 -7°C° 0 mm 4 mps 744 mmHg 84%

    Tomorrow, 26 January, Sunday

    Time Temperature Precipitation Wind Pressure Humidity
    00:00 -6°C° 0 mm 3 mps 745 mmHg 86%
    01:00 -7°C° 0 mm 3 mps 745 mmHg 88%
    02:00 -6°C° 0 mm 2 mps 745 mmHg 90%
    03:00 -6°C° 0 mm 2 mps 745 mmHg 90%
    04:00 -5°C° 0 mm 2 mps 745 mmHg 89%
    05:00 -6°C° 0 mm 3 mps 744 mmHg 89%
    06:00 -6°C° 0.1 mm 3 mps 744 mmHg 90%
    07:00 -4°C° 0.1 mm 2 mps 743 mmHg 91%
    08:00 -4°C° 0.1 mm 2 mps 742 mmHg 92%
    09:00 -4°C° 1 mm 2 mps 742 mmHg 93%
    10:00 -5°C° 1 mm 3 mps 741 mmHg 94%
    11:00 -4°C° 1 mm 3 mps 741 mmHg 95%
    12:00 -4°C° 0.4 mm 3 mps 741 mmHg 95%
    13:00 -3°C° 0.4 mm 2 mps 741 mmHg 94%
    14:00 -3°C° 0.4 mm 2 mps 741 mmHg 93%
    15:00 -3°C° 0 mm 2 mps 741 mmHg 93%
    16:00 -5°C° 0 mm 3 mps 742 mmHg 93%
    17:00 -5°C° 0 mm 3 mps 743 mmHg 93%
    18:00 -6°C° 0 mm 3 mps 744 mmHg 93%
    19:00 -6°C° 0 mm 3 mps 744 mmHg 92%
    20:00 -7°C° 0 mm 3 mps 745 mmHg 92%
    21:00 -8°C° 0 mm 3 mps 746 mmHg 91%
    22:00 -9°C° 0 mm 3 mps 747 mmHg 91%
    23:00 -9°C° 0 mm 3 mps 748 mmHg 90%

    Day after tomorrow, 27 January, Monday

    Time Temperature Precipitation Wind Pressure Humidity
    00:00 -10°C° 0 mm 3 mps 748 mmHg 90%
    01:00 -9°C° 0 mm 2 mps 748 mmHg 90%
    02:00 -10°C° 0 mm 2 mps 749 mmHg 89%
    03:00 -10°C° 0 mm 2 mps 749 mmHg 88%
    04:00 -10°C° 0 mm 2 mps 750 mmHg 87%
    05:00 -10°C° 0 mm 2 mps 750 mmHg 86%
    06:00 -10°C° 0 mm 2 mps 750 mmHg 84%
    07:00 -12°C° 0 mm 3 mps 750 mmHg 83%
    08:00 -10°C° 0 mm 3 mps 750 mmHg 81%
    09:00 -10°C° 0 mm 3 mps 750 mmHg 80%
    10:00 -9°C° 0 mm 3 mps 750 mmHg 80%
    11:00 -9°C° 0 mm 3 mps 750 mmHg 79%
    12:00 -9°C° 0.2 mm 4 mps 750 mmHg 83%
    13:00 -9°C° 0.2 mm 4 mps 750 mmHg 86%
    14:00 -9°C° 0.2 mm 4 mps 750 mmHg 90%
    15:00 -10°C° 0.2 mm 5 mps 749 mmHg 90%
    16:00 -8°C° 0.2 mm 5 mps 749 mmHg 91%
    17:00 -8°C° 0.2 mm 5 mps 749 mmHg 91%
    18:00 -8°C° 0.2 mm 5 mps 748 mmHg 92%
    19:00 -8°C° 0.2 mm 5 mps 748 mmHg 92%
    20:00 -8°C° 0.2 mm 5 mps 748 mmHg 92%
    21:00 -7°C° 0.1 mm 5 mps 748 mmHg 92%
    22:00 -7°C° 0.1 mm 5 mps 747 mmHg 92%
    23:00 -7°C° 0.1 mm 5 mps 747 mmHg 92%

    28 January, Tuesday

    Time Temperature Precipitation Wind Pressure Humidity
    00:00 -6°C° 0.3 mm 5 mps 747 mmHg 93%
    01:00 -5°C° 0.3 mm 4 mps 746 mmHg 94%
    02:00 -5°C° 0.3 mm 4 mps 746 mmHg 95%
    03:00 -4°C° 0.4 mm 4 mps 745 mmHg 96%
    04:00 -4°C° 0.4 mm 4 mps 745 mmHg 96%
    05:00 -3°C° 0.4 mm 4 mps 744 mmHg 97%
    06:00 -2°C° 0.2 mm 4 mps 744 mmHg 97%
    07:00 -2°C° 0.2 mm 4 mps 744 mmHg 97%
    08:00 -1°C° 0.2 mm 4 mps 744 mmHg 97%
    09:00 -1°C° 0.1 mm 4 mps 743 mmHg 97%
    10:00 0°C° 0.1 mm 4 mps 743 mmHg 98%
    11:00 0°C° 0.1 mm 4 mps 743 mmHg 98%
    12:00 0°C° 0.2 mm 4 mps 743 mmHg 98%
    13:00 0°C° 0.2 mm 4 mps 743 mmHg 98%
    14:00 0°C° 0.2 mm 4 mps 742 mmHg 98%
    15:00 0°C° 0.3 mm 4 mps 742 mmHg 97%
    16:00 0°C° 0.3 mm 4 mps 742 mmHg 97%
    17:00 0°C° 0.3 mm 4 mps 742 mmHg 97%
    18:00 0°C° 0.2 mm 4 mps 742 mmHg 97%
    19:00 0°C° 0.2 mm 4 mps 742 mmHg 97%
    20:00 0°C° 0.2 mm 4 mps 742 mmHg 97%
    21:00 0°C° 0.2 mm 4 mps 742 mmHg 97%
    22:00 -1°C° 0.2 mm 4 mps 742 mmHg 97%
    23:00 -1°C° 0.2 mm 4 mps 742 mmHg 97%

    29 January, Wednesday

    Time Temperature Precipitation Wind Pressure Humidity
    00:00 0°C° 0.2 mm 3 mps 741 mmHg 97%
    01:00 0°C° 0.2 mm 3 mps 741 mmHg 97%
    02:00 0°C° 0.2 mm 3 mps 741 mmHg 97%
    03:00 0°C° 0.2 mm 3 mps 741 mmHg 97%
    04:00 0°C° 0.2 mm 3 mps 741 mmHg 98%
    05:00 0°C° 0.2 mm 3 mps 741 mmHg 98%
    06:00 0°C° 0.1 mm 3 mps 741 mmHg 98%
    07:00 0°C° 0.1 mm 3 mps 741 mmHg 98%
    08:00 +1°C° 0.1 mm 2 mps 741 mmHg 98%
    09:00 0°C° 0 mm 3 mps 741 mmHg 97%
    10:00 0°C° 0 mm 3 mps 741 mmHg 97%
    11:00 0°C° 0 mm 3 mps 741 mmHg 97%
    12:00 0°C° 0.1 mm 3 mps 741 mmHg 97%
    13:00 0°C° 0.1 mm 3 mps 741 mmHg 97%
    14:00 0°C° 0.1 mm 3 mps 740 mmHg 98%
    15:00 0°C° 0.2 mm 3 mps 740 mmHg 98%
    16:00 0°C° 0.2 mm 3 mps 741 mmHg 97%
    17:00 0°C° 0.2 mm 3 mps 741 mmHg 97%
    18:00 0°C° 0.3 mm 3 mps 741 mmHg 97%
    19:00 0°C° 0.3 mm 3 mps 741 mmHg 97%
    20:00 0°C° 0.3 mm 3 mps 741 mmHg 97%
    21:00 0°C° 0.2 mm 3 mps 741 mmHg 97%
    22:00 0°C° 0.2 mm 3 mps 741 mmHg 97%
    23:00 0°C° 0.2 mm 3 mps 741 mmHg 97%

    30 January, Thursday

    Time Temperature Precipitation Wind Pressure Humidity
    00:00 0°C° 0.1 mm 3 mps 741 mmHg 97%
    01:00 0°C° 0.1 mm 3 mps 741 mmHg 97%
    02:00 0°C° 0.1 mm 3 mps 741 mmHg 97%
    03:00 0°C° 0.2 mm 3 mps 741 mmHg 97%
    04:00 0°C° 0.2 mm 3 mps 740 mmHg 97%
    05:00 0°C° 0.2 mm 3 mps 740 mmHg 97%
    06:00 0°C° 0.2 mm 3 mps 740 mmHg 97%
    07:00 0°C° 0.2 mm 3 mps 740 mmHg 97%
    08:00 0°C° 0.2 mm 3 mps 740 mmHg 97%
    09:00 -1°C° 0.2 mm 4 mps 740 mmHg 97%
    10:00 -1°C° 0.2 mm 4 mps 740 mmHg 97%
    11:00 -1°C° 0.2 mm 4 mps 740 mmHg 97%
    12:00 -1°C° 0.2 mm 4 mps 740 mmHg 97%
    13:00 -1°C° 0.2 mm 4 mps 740 mmHg 97%
    14:00 -1°C° 0.2 mm 4 mps 739 mmHg 97%
    15:00 -1°C° 0.2 mm 4 mps 739 mmHg 97%
    16:00 -1°C° 0.2 mm 4 mps 739 mmHg 97%
    17:00 -2°C° 0.2 mm 4 mps 739 mmHg 97%
    18:00 -2°C° 0.4 mm 4 mps 739 mmHg 97%
    19:00 -2°C° 0.4 mm 4 mps 739 mmHg 97%
    20:00 -2°C° 0.4 mm 4 mps 739 mmHg 96%
    21:00 -4°C° 0.3 mm 5 mps 739 mmHg 96%
    22:00 -4°C° 0.3 mm 5 mps 738 mmHg 95%
    23:00 -5°C° 0.3 mm 5 mps 738 mmHg 94%
    Show more